Year,Month,Day,Hour,Minute,Value (Times are PST for temperature in C)
2016,08,13,00,00,20.50
2016,08,13,00,01,20.40
2016,08,13,00,02,20.40
2016,08,13,00,03,20.40
2016,08,13,00,04,20.40
2016,08,13,00,05,20.40
2016,08,13,00,06,20.40
2016,08,13,00,07,20.30
2016,08,13,00,08,20.30
2016,08,13,00,09,20.30
2016,08,13,00,10,20.30
2016,08,13,00,11,20.30
2016,08,13,00,12,20.20
2016,08,13,00,13,20.20
2016,08,13,00,14,20.20
2016,08,13,00,15,20.20
2016,08,13,00,16,20.20
2016,08,13,00,17,20.20
2016,08,13,00,18,20.20
2016,08,13,00,19,20.20
2016,08,13,00,20,20.20
2016,08,13,00,21,20.20
2016,08,13,00,22,20.20
2016,08,13,00,23,20.20
2016,08,13,00,24,20.20
2016,08,13,00,25,20.20
2016,08,13,00,26,20.20
2016,08,13,00,27,20.10
2016,08,13,00,28,20.10
2016,08,13,00,29,20.10
2016,08,13,00,30,20.10
2016,08,13,00,31,20.00
2016,08,13,00,32,20.00
2016,08,13,00,33,20.00
2016,08,13,00,34,20.00
2016,08,13,00,35,19.90
2016,08,13,00,36,19.90
2016,08,13,00,37,19.90
2016,08,13,00,38,19.80
2016,08,13,00,39,19.80
2016,08,13,00,40,19.80
2016,08,13,00,41,19.80
2016,08,13,00,42,19.70
2016,08,13,00,43,19.70
2016,08,13,00,44,19.70
2016,08,13,00,45,19.70
2016,08,13,00,46,19.60
2016,08,13,00,47,19.60
2016,08,13,00,48,19.60
2016,08,13,00,49,19.60
2016,08,13,00,50,19.50
2016,08,13,00,51,19.50
2016,08,13,00,52,19.50
2016,08,13,00,53,19.50
2016,08,13,00,54,19.50
2016,08,13,00,55,19.50
2016,08,13,00,56,19.50
2016,08,13,00,57,19.50
2016,08,13,00,58,19.40
2016,08,13,00,59,19.40
2016,08,13,01,00,19.40
2016,08,13,01,01,19.40
2016,08,13,01,02,19.40
2016,08,13,01,03,19.40
2016,08,13,01,04,19.30
2016,08,13,01,05,19.30
2016,08,13,01,06,19.30
2016,08,13,01,07,19.30
2016,08,13,01,08,19.30
2016,08,13,01,09,19.30
2016,08,13,01,10,19.30
2016,08,13,01,11,19.30
2016,08,13,01,12,19.20
2016,08,13,01,13,19.20
2016,08,13,01,14,19.20
2016,08,13,01,15,19.20
2016,08,13,01,16,19.20
2016,08,13,01,17,19.20
2016,08,13,01,18,19.20
2016,08,13,01,19,19.20
2016,08,13,01,20,19.20
2016,08,13,01,21,19.20
2016,08,13,01,22,19.20
2016,08,13,01,23,19.20
2016,08,13,01,24,19.20
2016,08,13,01,25,19.20
2016,08,13,01,26,19.20
2016,08,13,01,27,19.10
2016,08,13,01,28,19.10
2016,08,13,01,29,19.10
2016,08,13,01,30,19.10
2016,08,13,01,31,19.00
2016,08,13,01,32,19.00
2016,08,13,01,33,18.90
2016,08,13,01,34,18.90
2016,08,13,01,35,18.90
2016,08,13,01,36,18.90
2016,08,13,01,37,18.80
2016,08,13,01,38,18.80
2016,08,13,01,39,18.80
2016,08,13,01,40,18.80
2016,08,13,01,41,18.80
2016,08,13,01,42,18.70
2016,08,13,01,43,18.70
2016,08,13,01,44,18.70
2016,08,13,01,45,18.70
2016,08,13,01,46,18.60
2016,08,13,01,47,18.60
2016,08,13,01,48,18.60
2016,08,13,01,49,18.60
2016,08,13,01,50,18.60
2016,08,13,01,51,18.50
2016,08,13,01,52,18.50
2016,08,13,01,53,18.50
2016,08,13,01,54,18.40
2016,08,13,01,55,18.40
2016,08,13,01,56,18.40
2016,08,13,01,57,18.40
2016,08,13,01,58,18.40
2016,08,13,01,59,18.30
2016,08,13,02,00,18.30
2016,08,13,02,01,18.30
2016,08,13,02,02,18.30
2016,08,13,02,03,18.20
2016,08,13,02,04,18.20
2016,08,13,02,05,18.20
2016,08,13,02,06,18.20
2016,08,13,02,07,18.20
2016,08,13,02,08,18.20
2016,08,13,02,09,18.20
2016,08,13,02,10,18.10
2016,08,13,02,11,18.10
2016,08,13,02,12,18.10
2016,08,13,02,13,18.10
2016,08,13,02,14,18.10
2016,08,13,02,15,18.10
2016,08,13,02,16,18.10
2016,08,13,02,17,18.00
2016,08,13,02,18,18.00
2016,08,13,02,19,18.00
2016,08,13,02,20,18.00
2016,08,13,02,21,18.00
2016,08,13,02,22,17.90
2016,08,13,02,23,17.90
2016,08,13,02,24,17.90
2016,08,13,02,25,17.90
2016,08,13,02,26,17.90
2016,08,13,02,27,17.90
2016,08,13,02,28,17.90
2016,08,13,02,29,17.90
2016,08,13,02,30,17.90
2016,08,13,02,31,17.80
2016,08,13,02,32,17.80
2016,08,13,02,33,17.80
2016,08,13,02,34,17.80
2016,08,13,02,35,17.80
2016,08,13,02,36,17.80
2016,08,13,02,37,17.80
2016,08,13,02,38,17.80
2016,08,13,02,39,17.80
2016,08,13,02,40,17.80
2016,08,13,02,41,17.70
2016,08,13,02,42,17.70
2016,08,13,02,43,17.70
2016,08,13,02,44,17.70
2016,08,13,02,45,17.70
2016,08,13,02,46,17.70
2016,08,13,02,47,17.60
2016,08,13,02,48,17.60
2016,08,13,02,49,17.60
2016,08,13,02,50,17.60
2016,08,13,02,51,17.60
2016,08,13,02,52,17.60
2016,08,13,02,53,17.60
2016,08,13,02,54,17.60
2016,08,13,02,55,17.60
2016,08,13,02,56,17.60
2016,08,13,02,57,17.60
2016,08,13,02,58,17.60
2016,08,13,02,59,17.60
2016,08,13,03,00,17.50
2016,08,13,03,01,17.50
2016,08,13,03,02,17.50
2016,08,13,03,03,17.40
2016,08,13,03,04,17.40
2016,08,13,03,05,17.40
2016,08,13,03,06,17.40
2016,08,13,03,07,17.40
2016,08,13,03,08,17.40
2016,08,13,03,09,17.40
2016,08,13,03,10,17.30
2016,08,13,03,11,17.30
2016,08,13,03,12,17.30
2016,08,13,03,13,17.30
2016,08,13,03,14,17.30
2016,08,13,03,15,17.30
2016,08,13,03,16,17.30
2016,08,13,03,17,17.30
2016,08,13,03,18,17.30
2016,08,13,03,19,17.20
2016,08,13,03,20,17.20
2016,08,13,03,21,17.20
2016,08,13,03,22,17.20
2016,08,13,03,23,17.20
2016,08,13,03,24,17.20
2016,08,13,03,25,17.20
2016,08,13,03,26,17.20
2016,08,13,03,27,17.20
2016,08,13,03,28,17.20
2016,08,13,03,29,17.20
2016,08,13,03,30,17.20
2016,08,13,03,31,17.10
2016,08,13,03,32,17.20
2016,08,13,03,33,17.20
2016,08,13,03,34,17.10
2016,08,13,03,35,17.10
2016,08,13,03,36,17.10
2016,08,13,03,37,17.10
2016,08,13,03,38,17.10
2016,08,13,03,39,17.10
2016,08,13,03,40,17.10
2016,08,13,03,41,17.10
2016,08,13,03,42,17.10
2016,08,13,03,43,17.10
2016,08,13,03,44,17.00
2016,08,13,03,45,17.00
2016,08,13,03,46,17.00
2016,08,13,03,47,17.00
2016,08,13,03,48,17.00
2016,08,13,03,49,17.00
2016,08,13,03,50,16.90
2016,08,13,03,51,16.90
2016,08,13,03,52,16.90
2016,08,13,03,53,16.90
2016,08,13,03,54,16.90
2016,08,13,03,55,16.90
2016,08,13,03,56,16.90
2016,08,13,03,57,16.90
2016,08,13,03,58,17.00
2016,08,13,03,59,16.90
2016,08,13,04,00,16.90
2016,08,13,04,01,16.90
2016,08,13,04,02,16.90
2016,08,13,04,03,16.90
2016,08,13,04,04,16.90
2016,08,13,04,05,16.90
2016,08,13,04,06,16.90
2016,08,13,04,07,16.90
2016,08,13,04,08,16.90
2016,08,13,04,09,16.90
2016,08,13,04,10,16.90
2016,08,13,04,11,16.80
2016,08,13,04,12,16.80
2016,08,13,04,13,16.80
2016,08,13,04,14,16.80
2016,08,13,04,15,16.80
2016,08,13,04,16,16.80
2016,08,13,04,17,16.80
2016,08,13,04,18,16.70
2016,08,13,04,19,16.70
2016,08,13,04,20,16.70
2016,08,13,04,21,16.70
2016,08,13,04,22,16.70
2016,08,13,04,23,16.70
2016,08,13,04,24,16.60
2016,08,13,04,25,16.60
2016,08,13,04,26,16.60
2016,08,13,04,27,16.60
2016,08,13,04,28,16.60
2016,08,13,04,29,16.60
2016,08,13,04,30,16.60
2016,08,13,04,31,16.60
2016,08,13,04,32,16.60
2016,08,13,04,33,16.60
2016,08,13,04,34,16.50
2016,08,13,04,35,16.50
2016,08,13,04,36,16.50
2016,08,13,04,37,16.40
2016,08,13,04,38,16.40
2016,08,13,04,39,16.40
2016,08,13,04,40,16.40
2016,08,13,04,41,16.40
2016,08,13,04,42,16.40
2016,08,13,04,43,16.40
2016,08,13,04,44,16.40
2016,08,13,04,45,16.30
2016,08,13,04,46,16.30
2016,08,13,04,47,16.30
2016,08,13,04,48,16.30
2016,08,13,04,49,16.30
2016,08,13,04,50,16.30
2016,08,13,04,51,16.30
2016,08,13,04,52,16.30
2016,08,13,04,53,16.20
2016,08,13,04,54,16.20
2016,08,13,04,55,16.20
2016,08,13,04,56,16.20
2016,08,13,04,57,16.20
2016,08,13,04,58,16.20
2016,08,13,04,59,16.20
2016,08,13,05,00,16.10
2016,08,13,05,01,16.10
2016,08,13,05,02,16.10
2016,08,13,05,03,16.10
2016,08,13,05,04,16.10
2016,08,13,05,05,16.10
2016,08,13,05,06,16.10
2016,08,13,05,07,16.10
2016,08,13,05,08,16.00
2016,08,13,05,09,16.00
2016,08,13,05,10,16.00
2016,08,13,05,11,16.00
2016,08,13,05,12,16.00
2016,08,13,05,13,16.00
2016,08,13,05,14,16.00
2016,08,13,05,15,15.90
2016,08,13,05,16,15.90
2016,08,13,05,17,15.90
2016,08,13,05,18,15.90
2016,08,13,05,19,15.90
2016,08,13,05,20,15.90
2016,08,13,05,21,15.90
2016,08,13,05,22,15.90
2016,08,13,05,23,15.90
2016,08,13,05,24,15.80
2016,08,13,05,25,15.80
2016,08,13,05,26,15.80
2016,08,13,05,27,15.80
2016,08,13,05,28,15.80
2016,08,13,05,29,15.80
2016,08,13,05,30,15.80
2016,08,13,05,31,15.80
2016,08,13,05,32,15.80
2016,08,13,05,33,15.70
2016,08,13,05,34,15.70
2016,08,13,05,35,15.70
2016,08,13,05,36,15.70
2016,08,13,05,37,15.70
2016,08,13,05,38,15.70
2016,08,13,05,39,15.70
2016,08,13,05,40,15.70
2016,08,13,05,41,15.70
2016,08,13,05,42,15.70
2016,08,13,05,43,15.60
2016,08,13,05,44,15.60
2016,08,13,05,45,15.60
2016,08,13,05,46,15.60
2016,08,13,05,47,15.60
2016,08,13,05,48,15.60
2016,08,13,05,49,15.60
2016,08,13,05,50,15.60
2016,08,13,05,51,15.60
2016,08,13,05,52,15.50
2016,08,13,05,53,15.50
2016,08,13,05,54,15.50
2016,08,13,05,55,15.50
2016,08,13,05,56,15.50
2016,08,13,05,57,15.50
2016,08,13,05,58,15.40
2016,08,13,05,59,15.40
2016,08,13,06,00,15.40
2016,08,13,06,01,15.40
2016,08,13,06,02,15.40
2016,08,13,06,03,15.40
2016,08,13,06,04,15.40
2016,08,13,06,05,15.40
2016,08,13,06,06,15.40
2016,08,13,06,07,15.40
2016,08,13,06,08,15.40
2016,08,13,06,09,15.40
2016,08,13,06,10,15.40
2016,08,13,06,11,15.40
2016,08,13,06,12,15.40
2016,08,13,06,13,15.40
2016,08,13,06,14,15.40
2016,08,13,06,15,15.30
2016,08,13,06,16,15.30
2016,08,13,06,17,15.30
2016,08,13,06,18,15.30
2016,08,13,06,19,15.30
2016,08,13,06,20,15.30
2016,08,13,06,21,15.30
2016,08,13,06,22,15.30
2016,08,13,06,23,15.30
2016,08,13,06,24,15.30
2016,08,13,06,25,15.30
2016,08,13,06,26,15.30
2016,08,13,06,27,15.30
2016,08,13,06,28,15.30
2016,08,13,06,29,15.30
2016,08,13,06,30,15.30
2016,08,13,06,31,15.30
2016,08,13,06,32,15.30
2016,08,13,06,33,15.30
2016,08,13,06,34,15.30
2016,08,13,06,35,15.30
2016,08,13,06,36,15.30
2016,08,13,06,37,15.30
2016,08,13,06,38,15.30
2016,08,13,06,39,15.30
2016,08,13,06,40,15.30
2016,08,13,06,41,15.30
2016,08,13,06,42,15.30
2016,08,13,06,43,15.30
2016,08,13,06,44,15.30
2016,08,13,06,45,15.30
2016,08,13,06,46,15.30
2016,08,13,06,47,15.30
2016,08,13,06,48,15.30
2016,08,13,06,49,15.30
2016,08,13,06,50,15.30
2016,08,13,06,51,15.30
2016,08,13,06,52,15.30
2016,08,13,06,53,15.30
2016,08,13,06,54,15.30
2016,08,13,06,55,15.30
2016,08,13,06,56,15.30
2016,08,13,06,57,15.30
2016,08,13,06,58,15.40
2016,08,13,06,59,15.40
2016,08,13,07,00,15.40
2016,08,13,07,01,15.40
2016,08,13,07,02,15.40
2016,08,13,07,03,15.40
2016,08,13,07,04,15.50
2016,08,13,07,05,15.50
2016,08,13,07,06,15.50
2016,08,13,07,07,15.60
2016,08,13,07,08,15.60
2016,08,13,07,09,15.60
2016,08,13,07,10,15.60
2016,08,13,07,11,15.60
2016,08,13,07,12,15.60
2016,08,13,07,13,15.70
2016,08,13,07,14,15.70
2016,08,13,07,15,15.70
2016,08,13,07,16,15.70
2016,08,13,07,17,15.70
2016,08,13,07,18,15.70
2016,08,13,07,19,15.70
2016,08,13,07,20,15.80
2016,08,13,07,21,15.80
2016,08,13,07,22,15.80
2016,08,13,07,23,15.80
2016,08,13,07,24,15.80
2016,08,13,07,25,15.80
2016,08,13,07,26,15.90
2016,08,13,07,27,15.90
2016,08,13,07,28,15.90
2016,08,13,07,29,15.90
2016,08,13,07,30,15.90
2016,08,13,07,31,15.90
2016,08,13,07,32,15.90
2016,08,13,07,33,15.90
2016,08,13,07,34,16.00
2016,08,13,07,35,16.00
2016,08,13,07,36,16.00
2016,08,13,07,37,16.00
2016,08,13,07,38,16.00
2016,08,13,07,39,16.10
2016,08,13,07,40,16.10
2016,08,13,07,41,16.10
2016,08,13,07,42,16.10
2016,08,13,07,43,16.10
2016,08,13,07,44,16.10
2016,08,13,07,45,16.10
2016,08,13,07,46,16.10
2016,08,13,07,47,16.10
2016,08,13,07,48,16.20
2016,08,13,07,49,16.20
2016,08,13,07,50,16.20
2016,08,13,07,51,16.20
2016,08,13,07,52,16.20
2016,08,13,07,53,16.20
2016,08,13,07,54,16.20
2016,08,13,07,55,16.20
2016,08,13,07,56,16.30
2016,08,13,07,57,16.30
2016,08,13,07,58,16.30
2016,08,13,07,59,16.30
2016,08,13,08,00,16.30
2016,08,13,08,01,16.30
2016,08,13,08,02,16.30
2016,08,13,08,03,16.30
2016,08,13,08,04,16.30
2016,08,13,08,05,16.30
2016,08,13,08,06,16.30
2016,08,13,08,07,16.30
2016,08,13,08,08,16.30
2016,08,13,08,09,16.30
2016,08,13,08,10,16.30
2016,08,13,08,11,16.30
2016,08,13,08,12,16.30
2016,08,13,08,13,16.40
2016,08,13,08,14,16.40
2016,08,13,08,15,16.40
2016,08,13,08,16,16.40
2016,08,13,08,17,16.40
2016,08,13,08,18,16.40
2016,08,13,08,19,16.50
2016,08,13,08,20,16.50
2016,08,13,08,21,16.50
2016,08,13,08,22,16.50
2016,08,13,08,23,16.50
2016,08,13,08,24,16.50
2016,08,13,08,25,16.60
2016,08,13,08,26,16.60
2016,08,13,08,27,16.60
2016,08,13,08,28,16.60
2016,08,13,08,29,16.60
2016,08,13,08,30,16.70
2016,08,13,08,31,16.70
2016,08,13,08,32,16.70
2016,08,13,08,33,16.80
2016,08,13,08,34,16.80
2016,08,13,08,35,16.80
2016,08,13,08,36,16.80
2016,08,13,08,37,16.80
2016,08,13,08,38,16.90
2016,08,13,08,39,16.90
2016,08,13,08,40,17.00
2016,08,13,08,41,17.00
2016,08,13,08,42,17.10
2016,08,13,08,43,17.10
2016,08,13,08,44,17.20
2016,08,13,08,45,17.20
2016,08,13,08,46,17.20
2016,08,13,08,47,17.20
2016,08,13,08,48,17.20
2016,08,13,08,49,17.30
2016,08,13,08,50,17.30
2016,08,13,08,51,17.30
2016,08,13,08,52,17.30
2016,08,13,08,53,17.30
2016,08,13,08,54,17.30
2016,08,13,08,55,17.30
2016,08,13,08,56,17.30
2016,08,13,08,57,17.40
2016,08,13,08,58,17.40
2016,08,13,08,59,17.50
2016,08,13,09,00,17.50
2016,08,13,09,01,17.60
2016,08,13,09,02,17.60
2016,08,13,09,03,17.60
2016,08,13,09,04,17.60
2016,08,13,09,05,17.70
2016,08,13,09,06,17.70
2016,08,13,09,07,17.70
2016,08,13,09,08,17.70
2016,08,13,09,09,17.70
2016,08,13,09,10,17.70
2016,08,13,09,11,17.70
2016,08,13,09,12,17.70
2016,08,13,09,13,17.70
2016,08,13,09,14,17.80
2016,08,13,09,15,17.80
2016,08,13,09,16,17.80
2016,08,13,09,17,17.80
2016,08,13,09,18,17.80
2016,08,13,09,19,17.90
2016,08,13,09,20,17.90
2016,08,13,09,21,17.90
2016,08,13,09,22,17.90
2016,08,13,09,23,17.90
2016,08,13,09,24,17.90
2016,08,13,09,25,17.90
2016,08,13,09,26,17.90
2016,08,13,09,27,17.90
2016,08,13,09,28,17.90
2016,08,13,09,29,17.90
2016,08,13,09,30,17.80
2016,08,13,09,31,17.80
2016,08,13,09,32,17.80
2016,08,13,09,33,17.90
2016,08,13,09,34,17.90
2016,08,13,09,35,17.90
2016,08,13,09,36,18.00
2016,08,13,09,37,18.00
2016,08,13,09,38,18.00
2016,08,13,09,39,18.10
2016,08,13,09,40,18.10
2016,08,13,09,41,18.20
2016,08,13,09,42,18.20
2016,08,13,09,43,18.30
2016,08,13,09,44,18.30
2016,08,13,09,45,18.40
2016,08,13,09,46,18.50
2016,08,13,09,47,18.50
2016,08,13,09,48,18.60
2016,08,13,09,49,18.70
2016,08,13,09,50,18.70
2016,08,13,09,51,18.70
2016,08,13,09,52,18.80
2016,08,13,09,53,18.80
2016,08,13,09,54,18.80
2016,08,13,09,55,18.80
2016,08,13,09,56,18.70
2016,08,13,09,57,18.70
2016,08,13,09,58,18.70
2016,08,13,09,59,18.70
2016,08,13,10,00,18.70
2016,08,13,10,01,18.70
2016,08,13,10,02,18.80
2016,08,13,10,03,18.70
2016,08,13,10,04,18.70
2016,08,13,10,05,18.70
2016,08,13,10,06,18.70
2016,08,13,10,07,18.60
2016,08,13,10,08,18.50
2016,08,13,10,09,18.50
2016,08,13,10,10,18.50
2016,08,13,10,11,18.60
2016,08,13,10,12,18.60
2016,08,13,10,13,18.60
2016,08,13,10,14,18.60
2016,08,13,10,15,18.60
2016,08,13,10,16,18.60
2016,08,13,10,17,18.70
2016,08,13,10,18,18.70
2016,08,13,10,19,18.70
2016,08,13,10,20,18.80
2016,08,13,10,21,18.80
2016,08,13,10,22,18.90
2016,08,13,10,23,18.90
2016,08,13,10,24,19.00
2016,08,13,10,25,19.00
2016,08,13,10,26,19.10
2016,08,13,10,27,19.20
2016,08,13,10,28,19.20
2016,08,13,10,29,19.30
2016,08,13,10,30,19.30
2016,08,13,10,31,19.40
2016,08,13,10,32,19.40
2016,08,13,10,33,19.40
2016,08,13,10,34,19.50
2016,08,13,10,35,19.50
2016,08,13,10,36,19.50
2016,08,13,10,37,19.50
2016,08,13,10,38,19.50
2016,08,13,10,39,19.60
2016,08,13,10,40,19.60
2016,08,13,10,41,19.60
2016,08,13,10,42,19.60
2016,08,13,10,43,19.60
2016,08,13,10,44,19.60
2016,08,13,10,45,19.60
2016,08,13,10,46,19.70
2016,08,13,10,47,19.70
2016,08,13,10,48,19.80
2016,08,13,10,49,19.80
2016,08,13,10,50,19.80
2016,08,13,10,51,19.70
2016,08,13,10,52,19.70
2016,08,13,10,53,19.70
2016,08,13,10,54,19.70
2016,08,13,10,55,19.70
2016,08,13,10,56,19.70
2016,08,13,10,57,19.70
2016,08,13,10,58,19.70
2016,08,13,10,59,19.70
2016,08,13,11,00,19.70
2016,08,13,11,01,19.70
2016,08,13,11,02,19.80
2016,08,13,11,03,19.80
2016,08,13,11,04,19.80
2016,08,13,11,05,19.80
2016,08,13,11,06,19.80
2016,08,13,11,07,19.80
2016,08,13,11,08,19.80
2016,08,13,11,09,19.80
2016,08,13,11,10,19.80
2016,08,13,11,11,19.80
2016,08,13,11,12,19.80
2016,08,13,11,13,19.80
2016,08,13,11,14,19.70
2016,08,13,11,15,19.70
2016,08,13,11,16,19.70
2016,08,13,11,17,19.70
2016,08,13,11,18,19.70
2016,08,13,11,19,19.60
2016,08,13,11,20,19.60
2016,08,13,11,21,19.60
2016,08,13,11,22,19.60
2016,08,13,11,23,19.70
2016,08,13,11,24,19.70
2016,08,13,11,25,19.70
2016,08,13,11,26,19.70
2016,08,13,11,27,19.80
2016,08,13,11,28,19.80
2016,08,13,11,29,19.80
2016,08,13,11,30,19.80
2016,08,13,11,31,19.70
2016,08,13,11,32,19.70
2016,08,13,11,33,19.70
2016,08,13,11,34,19.70
2016,08,13,11,35,19.70
2016,08,13,11,36,19.70
2016,08,13,11,37,19.80
2016,08,13,11,38,19.80
2016,08,13,11,39,19.80
2016,08,13,11,40,19.90
2016,08,13,11,41,19.90
2016,08,13,11,42,19.90
2016,08,13,11,43,19.90
2016,08,13,11,44,20.00
2016,08,13,11,45,20.00
2016,08,13,11,46,20.10
2016,08,13,11,47,20.10
2016,08,13,11,48,20.10
2016,08,13,11,49,20.10
2016,08,13,11,50,20.10
2016,08,13,11,51,20.20
2016,08,13,11,52,20.20
2016,08,13,11,53,20.30
2016,08,13,11,54,20.30
2016,08,13,11,55,20.40
2016,08,13,11,56,20.40
2016,08,13,11,57,20.40
2016,08,13,11,58,20.50
2016,08,13,11,59,20.50
2016,08,13,12,00,20.60
2016,08,13,12,01,20.70
2016,08,13,12,02,20.80
2016,08,13,12,03,20.80
2016,08,13,12,04,20.90
2016,08,13,12,05,20.90
2016,08,13,12,06,20.90
2016,08,13,12,07,20.90
2016,08,13,12,08,21.00
2016,08,13,12,09,21.00
2016,08,13,12,10,21.10
2016,08,13,12,11,21.10
2016,08,13,12,12,21.10
2016,08,13,12,13,21.20
2016,08,13,12,14,21.20
2016,08,13,12,15,21.20
2016,08,13,12,16,21.30
2016,08,13,12,17,21.30
2016,08,13,12,18,21.30
2016,08,13,12,19,21.40
2016,08,13,12,20,21.40
2016,08,13,12,21,21.40
2016,08,13,12,22,21.50
2016,08,13,12,23,21.50
2016,08,13,12,24,21.50
2016,08,13,12,25,21.60
2016,08,13,12,26,21.60
2016,08,13,12,27,21.60
2016,08,13,12,28,21.60
2016,08,13,12,29,21.60
2016,08,13,12,30,21.60
2016,08,13,12,31,21.60
2016,08,13,12,32,21.60
2016,08,13,12,33,21.50
2016,08,13,12,34,21.50
2016,08,13,12,35,21.60
2016,08,13,12,36,21.60
2016,08,13,12,37,21.60
2016,08,13,12,38,21.60
2016,08,13,12,39,21.60
2016,08,13,12,40,21.60
2016,08,13,12,41,21.60
2016,08,13,12,42,21.70
2016,08,13,12,43,21.70
2016,08,13,12,44,21.70
2016,08,13,12,45,21.80
2016,08,13,12,46,21.80
2016,08,13,12,47,21.90
2016,08,13,12,48,21.90
2016,08,13,12,49,21.90
2016,08,13,12,50,22.00
2016,08,13,12,51,22.00
2016,08,13,12,52,22.00
2016,08,13,12,53,22.00
2016,08,13,12,54,22.00
2016,08,13,12,55,21.90
2016,08,13,12,56,22.00
2016,08,13,12,57,22.00
2016,08,13,12,58,22.10
2016,08,13,12,59,22.10
2016,08,13,13,00,22.20
2016,08,13,13,01,22.20
2016,08,13,13,02,22.20
2016,08,13,13,03,22.30
2016,08,13,13,04,22.40
2016,08,13,13,05,22.40
2016,08,13,13,06,22.50
2016,08,13,13,07,22.60
2016,08,13,13,08,22.70
2016,08,13,13,09,22.70
2016,08,13,13,10,22.80
2016,08,13,13,11,22.70
2016,08,13,13,12,22.70
2016,08,13,13,13,22.60
2016,08,13,13,14,22.60
2016,08,13,13,15,22.60
2016,08,13,13,16,22.60
2016,08,13,13,17,22.70
2016,08,13,13,18,22.70
2016,08,13,13,19,22.80
2016,08,13,13,20,22.90
2016,08,13,13,21,23.00
2016,08,13,13,22,23.00
2016,08,13,13,23,23.10
2016,08,13,13,24,23.10
2016,08,13,13,25,23.20
2016,08,13,13,26,23.20
2016,08,13,13,27,23.20
2016,08,13,13,28,23.20
2016,08,13,13,29,23.20
2016,08,13,13,30,23.20
2016,08,13,13,31,23.20
2016,08,13,13,32,23.20
2016,08,13,13,33,23.20
2016,08,13,13,34,23.30
2016,08,13,13,35,23.30
2016,08,13,13,36,23.30
2016,08,13,13,37,23.30
2016,08,13,13,38,23.30
2016,08,13,13,39,23.30
2016,08,13,13,40,23.30
2016,08,13,13,41,23.30
2016,08,13,13,42,23.30
2016,08,13,13,43,23.40
2016,08,13,13,44,23.40
2016,08,13,13,45,23.50
2016,08,13,13,46,23.60
2016,08,13,13,47,23.60
2016,08,13,13,48,23.60
2016,08,13,13,49,23.60
2016,08,13,13,50,23.60
2016,08,13,13,51,23.60
2016,08,13,13,52,23.70
2016,08,13,13,53,23.60
2016,08,13,13,54,23.60
2016,08,13,13,55,23.50
2016,08,13,13,56,23.40
2016,08,13,13,57,23.30
2016,08,13,13,58,23.30
2016,08,13,13,59,23.30
2016,08,13,14,00,23.30
2016,08,13,14,01,23.20
2016,08,13,14,02,23.20
2016,08,13,14,03,23.20
2016,08,13,14,04,23.20
2016,08,13,14,05,23.20
2016,08,13,14,06,23.20
2016,08,13,14,07,23.20
2016,08,13,14,08,23.20
2016,08,13,14,09,23.30
2016,08,13,14,10,23.30
2016,08,13,14,11,23.30
2016,08,13,14,12,23.30
2016,08,13,14,13,23.30
2016,08,13,14,14,23.30
2016,08,13,14,15,23.20
2016,08,13,14,16,23.20
2016,08,13,14,17,23.20
2016,08,13,14,18,23.10
2016,08,13,14,19,23.10
2016,08,13,14,20,23.10
2016,08,13,14,21,23.10
2016,08,13,14,22,23.20
2016,08,13,14,23,23.30
2016,08,13,14,24,23.40
2016,08,13,14,25,23.50
2016,08,13,14,26,23.60
2016,08,13,14,27,23.70
2016,08,13,14,28,23.80
2016,08,13,14,29,23.80
2016,08,13,14,30,23.90
2016,08,13,14,31,23.90
2016,08,13,14,32,24.00
2016,08,13,14,33,24.00
2016,08,13,14,34,24.10
2016,08,13,14,35,24.20
2016,08,13,14,36,24.20
2016,08,13,14,37,24.20
2016,08,13,14,38,24.20
2016,08,13,14,39,24.20
2016,08,13,14,40,24.10
2016,08,13,14,41,24.10
2016,08,13,14,42,24.00
2016,08,13,14,43,24.00
2016,08,13,14,44,23.90
2016,08,13,14,45,23.90
2016,08,13,14,46,23.90
2016,08,13,14,47,23.90
2016,08,13,14,48,23.90
2016,08,13,14,49,23.90
2016,08,13,14,50,23.90
2016,08,13,14,51,23.90
2016,08,13,14,52,24.00
2016,08,13,14,53,24.00
2016,08,13,14,54,24.00
2016,08,13,14,55,24.00
2016,08,13,14,56,24.10
2016,08,13,14,57,24.00
2016,08,13,14,58,24.00
2016,08,13,14,59,23.90
2016,08,13,15,00,23.90
2016,08,13,15,01,23.90
2016,08,13,15,02,23.90
2016,08,13,15,03,23.90
2016,08,13,15,04,23.90
2016,08,13,15,05,23.90
2016,08,13,15,06,23.90
2016,08,13,15,07,23.90
2016,08,13,15,08,24.00
2016,08,13,15,09,24.10
2016,08,13,15,10,24.10
2016,08,13,15,11,24.20
2016,08,13,15,12,24.30
2016,08,13,15,13,24.30
2016,08,13,15,14,24.30
2016,08,13,15,15,24.40
2016,08,13,15,16,24.30
2016,08,13,15,17,24.30
2016,08,13,15,18,24.30
2016,08,13,15,19,24.20
2016,08,13,15,20,24.20
2016,08,13,15,21,24.20
2016,08,13,15,22,24.00
2016,08,13,15,23,24.00
2016,08,13,15,24,23.90
2016,08,13,15,25,23.90
2016,08,13,15,26,24.00
2016,08,13,15,27,24.00
2016,08,13,15,28,24.10
2016,08,13,15,29,24.20
2016,08,13,15,30,24.20
2016,08,13,15,31,24.20
2016,08,13,15,32,24.20
2016,08,13,15,33,24.30
2016,08,13,15,34,24.40
2016,08,13,15,35,24.50
2016,08,13,15,36,24.60
2016,08,13,15,37,24.70
2016,08,13,15,38,24.90
2016,08,13,15,39,25.10
2016,08,13,15,40,25.30
2016,08,13,15,41,25.50
2016,08,13,15,42,25.60
2016,08,13,15,43,25.70
2016,08,13,15,44,25.80
2016,08,13,15,45,25.80
2016,08,13,15,46,25.80
2016,08,13,15,47,25.80
2016,08,13,15,48,25.90
2016,08,13,15,49,25.90
2016,08,13,15,50,25.90
2016,08,13,15,51,25.90
2016,08,13,15,52,25.90
2016,08,13,15,53,25.90
2016,08,13,15,54,25.90
2016,08,13,15,55,25.90
2016,08,13,15,56,25.90
2016,08,13,15,57,25.80
2016,08,13,15,58,25.80
2016,08,13,15,59,25.80
2016,08,13,16,00,25.80
2016,08,13,16,01,25.90
2016,08,13,16,02,25.90
2016,08,13,16,03,25.90
2016,08,13,16,04,25.90
2016,08,13,16,05,25.90
2016,08,13,16,06,25.80
2016,08,13,16,07,25.80
2016,08,13,16,08,25.90
2016,08,13,16,09,25.90
2016,08,13,16,10,25.90
2016,08,13,16,11,25.90
2016,08,13,16,12,25.90
2016,08,13,16,13,26.00
2016,08,13,16,14,26.00
2016,08,13,16,15,26.00
2016,08,13,16,16,26.10
2016,08,13,16,17,26.10
2016,08,13,16,18,26.10
2016,08,13,16,19,26.00
2016,08,13,16,20,26.00
2016,08,13,16,21,26.10
2016,08,13,16,22,26.10
2016,08,13,16,23,26.20
2016,08,13,16,24,26.20
2016,08,13,16,25,26.20
2016,08,13,16,26,26.20
2016,08,13,16,27,26.20
2016,08,13,16,28,26.20
2016,08,13,16,29,26.30
2016,08,13,16,30,26.30
2016,08,13,16,31,26.30
2016,08,13,16,32,26.30
2016,08,13,16,33,26.30
2016,08,13,16,34,26.30
2016,08,13,16,35,26.30
2016,08,13,16,36,26.30
2016,08,13,16,37,26.30
2016,08,13,16,38,26.30
2016,08,13,16,39,26.20
2016,08,13,16,40,26.20
2016,08,13,16,41,26.20
2016,08,13,16,42,26.10
2016,08,13,16,43,26.10
2016,08,13,16,44,26.20
2016,08,13,16,45,26.20
2016,08,13,16,46,26.20
2016,08,13,16,47,26.20
2016,08,13,16,48,26.20
2016,08,13,16,49,26.30
2016,08,13,16,50,26.30
2016,08,13,16,51,26.40
2016,08,13,16,52,26.40
2016,08,13,16,53,26.40
2016,08,13,16,54,26.40
2016,08,13,16,55,26.40
2016,08,13,16,56,26.30
2016,08,13,16,57,26.30
2016,08,13,16,58,26.30
2016,08,13,16,59,26.30
2016,08,13,17,00,26.30
2016,08,13,17,01,26.30
2016,08,13,17,02,26.30
2016,08,13,17,03,26.30
2016,08,13,17,04,26.40
2016,08,13,17,05,26.40
2016,08,13,17,06,26.40
2016,08,13,17,07,26.40
2016,08,13,17,08,26.40
2016,08,13,17,09,26.40
2016,08,13,17,10,26.30
2016,08,13,17,11,26.30
2016,08,13,17,12,26.30
2016,08,13,17,13,26.20
2016,08,13,17,14,26.20
2016,08,13,17,15,26.30
2016,08,13,17,16,26.30
2016,08,13,17,17,26.30
2016,08,13,17,18,26.30
2016,08,13,17,19,26.30